| time (UTC) | temp F | wind direction | speed MPH | gust MPH | rain 1hr in | rain 24hr in | rain mn in | humidity % | barometer mb |
| 20260504044537 | 45 | 152 | 1.0 | 2.0 | 0.00 | 0.00 | 0.00 | 71 | 1016.0 |
| 20260504043029 | 45 | 152 | 1.0 | 2.0 | 0.00 | 0.00 | 0.00 | 70 | 1016.0 |
| 20260504041528 | 45 | 153 | 2.0 | 5.0 | 0.00 | 0.00 | 0.00 | 64 | 1016.0 |
| 20260504040024 | 45 | 171 | 2.0 | 4.0 | 0.00 | 0.00 | 0.00 | 65 | 1016.1 |
| 20260504034531 | 44 | 167 | 3.0 | 4.0 | 0.00 | 0.00 | 0.00 | 69 | 1016.2 |
| 20260504033022 | 44 | 167 | 1.0 | 3.0 | 0.00 | 0.00 | 0.00 | 72 | 1016.1 |
| 20260504031523 | 44 | 167 | 2.0 | 3.0 | 0.00 | 0.00 | 0.00 | 72 | 1016.2 |
| 20260504030037 | 44 | 167 | 2.0 | 4.0 | 0.00 | 0.00 | 0.00 | 71 | 1016.2 |
| 20260504024521 | 44 | 167 | 2.0 | 4.0 | 0.00 | 0.00 | 0.00 | 70 | 1016.3 |
| 20260504023022 | 44 | 167 | 1.0 | 4.0 | 0.00 | 0.00 | 0.00 | 70 | 1016.3 |
| 20260504021520 | 44 | 167 | 0.0 | 2.0 | 0.00 | 0.00 | 0.00 | 68 | 1016.4 |
| 20260504020019 | 44 | 167 | 2.0 | 3.0 | 0.00 | 0.00 | 0.00 | 67 | 1016.4 |
| 20260504014532 | 44 | 167 | 2.0 | 3.0 | 0.00 | 0.00 | 0.00 | 69 | 1016.4 |
| 20260504013018 | 44 | 191 | 0.0 | 2.0 | 0.00 | 0.00 | 0.00 | 68 | 1016.3 |
| 20260504011518 | 44 | 191 | 0.0 | 2.0 | 0.00 | 0.00 | 0.00 | 63 | 1016.1 |
| 20260504010020 | 45 | 303 | 0.0 | 2.0 | 0.00 | 0.00 | 0.00 | 62 | 1015.9 |
| 20260504004517 | 47 | 298 | 0.0 | 1.0 | 0.00 | 0.00 | 0.00 | 52 | 1015.8 |
| 20260504003026 | 49 | 298 | 0.0 | 0.0 | 0.00 | 0.00 | 0.00 | 50 | 1015.7 |
| 20260504001516 | 50 | 298 | 0.0 | 1.0 | 0.00 | 0.00 | 0.00 | 43 | 1015.7 |
| 20260504000015 | 51 | 312 | 0.0 | 4.0 | 0.00 | 0.00 | 0.00 | 41 | 1015.7 |
| 20260503234529 | 52 | 296 | 0.0 | 5.0 | 0.00 | 0.00 | 0.00 | 39 | 1015.8 |
| 20260503233013 | 53 | 304 | 1.0 | 4.0 | 0.00 | 0.00 | 0.00 | 37 | 1015.8 |
| 20260503231514 | 54 | 284 | 1.0 | 4.0 | 0.00 | 0.00 | 0.00 | 38 | 1015.9 |
| 20260503230016 | 56 | 340 | 1.0 | 5.0 | 0.00 | 0.00 | 0.00 | 36 | 1015.9 |
| 20260503224512 | 55 | 164 | 0.0 | 8.0 | 0.00 | 0.00 | 0.00 | 37 | 1015.9 |
| 20260503223012 | 56 | 317 | 1.0 | 5.0 | 0.00 | 0.00 | 0.00 | 35 | 1015.9 |
| 20260503221511 | 56 | 323 | 1.0 | 5.0 | 0.00 | 0.00 | 0.00 | 36 | 1015.8 |
| 20260503220011 | 56 | 355 | 3.0 | 8.0 | 0.00 | 0.00 | 0.00 | 34 | 1015.8 |
| 20260503214513 | 57 | 301 | 2.0 | 7.0 | 0.00 | 0.00 | 0.00 | 35 | 1015.9 |
| 20260503213007 | 56 | 290 | 0.0 | 9.0 | 0.00 | 0.00 | 0.00 | 37 | 1015.8 |
| 20260503211505 | 56 | 335 | 2.0 | 5.0 | 0.00 | 0.00 | 0.00 | 37 | 1016.1 |
| 20260503210006 | 55 | 338 | 2.0 | 5.0 | 0.00 | 0.00 | 0.00 | 38 | 1016.2 |
| 20260503204504 | 55 | 317 | 3.0 | 8.0 | 0.00 | 0.00 | 0.00 | 35 | 1016.4 |
| 20260503203003 | 55 | 316 | 4.0 | 9.0 | 0.00 | 0.00 | 0.00 | 38 | 1016.5 |
| 20260503201503 | 55 | 333 | 1.0 | 8.0 | 0.00 | 0.00 | 0.00 | 42 | 1016.8 |
| 20260503200002 | 54 | 328 | 3.0 | 8.0 | 0.00 | 0.00 | 0.00 | 38 | 1017.0 |
| 20260503194601 | 55 | 317 | 3.0 | 6.0 | 0.00 | 0.00 | 0.00 | 38 | 1017.3 |
| 20260503193102 | 55 | 288 | 1.0 | 6.0 | 0.00 | 0.00 | 0.00 | 42 | 1017.5 |
| 20260503191627 | 54 | 296 | 2.0 | 6.0 | 0.00 | 0.00 | 0.00 | 40 | 1017.6 |
| 20260503190056 | 53 | 281 | 3.0 | 11.0 | 0.00 | 0.00 | 0.00 | 39 | 1017.8 |
| 20260503184559 | 53 | 320 | 1.0 | 5.0 | 0.00 | 0.00 | 0.00 | 40 | 1017.9 |
| 20260503183111 | 52 | 333 | 3.0 | 6.0 | 0.00 | 0.00 | 0.00 | 42 | 1018.1 |
| 20260503181551 | 53 | 332 | 3.0 | 8.0 | 0.00 | 0.00 | 0.00 | 44 | 1018.2 |
| 20260503180050 | 52 | 351 | 0.0 | 6.0 | 0.00 | 0.00 | 0.00 | 44 | 1018.6 |
| 20260503174546 | 51 | 346 | 2.0 | 7.0 | 0.00 | 0.00 | 0.00 | 48 | 1018.6 |
| 20260503173110 | 51 | 310 | 2.0 | 8.0 | 0.00 | 0.00 | 0.00 | 44 | 1018.6 |
| 20260503171545 | 51 | 339 | 2.0 | 6.0 | 0.00 | 0.00 | 0.00 | 48 | 1018.8 |
| 20260503120118 | 34 | 178 | 2.0 | 4.0 | 0.00 | 0.00 | 0.00 | 91 | 1019.2 |
| 20260503081521 | 35 | 341 | 0.0 | 2.0 | 0.00 | 0.00 | 0.00 | 84 | 1017.0 |